Zurück zum Katalog

COSMOS 249 DEB

AktivLEO
NORAD 3606·DEBRIS·🇷🇺 Russia

Gestartet Oct 20, 1968 von Baikonur Cosmodrome

Loading…

Nächste Überflüge (nächste 24 Stunden)

TLE

AktuellSource: Space-Track

Epoche: Sep 14, 2026, 22:42 UTC

1 03606U 68091Y   26257.94593348  .00000879  00000-0  78716-3 0  9992
2 03606  62.2540 240.1358 0730849 304.8881  48.5489 13.06195660696390

Verfolge COSMOS 249 DEB in Echtzeit mit AllMySat

Download on the App Store